When you browse on this site, cookies collect data to enhance your experience and personalize the content and advertising you see.
Visit our Privacy Policy to learn more. By continuing to use the site, you agree to this use of cookies and data.
  • In Germany
  • List of Countries
  • For 7 days
  • Water Temperature
  • Weather Map
  • Weather Widgets
  • user-avatar
    Login

    Hourly Weather Bregenz

    Today, 11 December, Wednesday

    Time Temperature Precipitation Wind Pressure Humidity
    00:00 -9°C° 0 mm 2 mps 645 mmHg 60%
    01:00 -7°C° 0 mm 2 mps 645 mmHg 47%
    02:00 -6°C° 0 mm 2 mps 644 mmHg 46%
    03:00 -6°C° 0 mm 2 mps 644 mmHg 45%
    04:00 -4°C° 0 mm 1 mps 643 mmHg 44%
    05:00 -4°C° 0 mm 1 mps 643 mmHg 44%
    06:00 -3°C° 0 mm 1 mps 642 mmHg 44%
    07:00 -5°C° 0 mm 2 mps 642 mmHg 43%
    08:00 -4°C° 0 mm 2 mps 642 mmHg 45%
    09:00 -1°C° 0 mm 1 mps 642 mmHg 46%
    10:00 0°C° 0 mm 1 mps 642 mmHg 47%
    11:00 +1°C° 0 mm 1 mps 641 mmHg 50%
    12:00 +1°C° 0 mm 0 mps 641 mmHg 53%
    13:00 +1°C° 0 mm 0 mps 641 mmHg 55%
    14:00 +1°C° 0 mm 0 mps 640 mmHg 56%
    15:00 0°C° 0 mm 0 mps 639 mmHg 57%
    16:00 -1°C° 0 mm 0 mps 638 mmHg 57%
    17:00 0°C° 0 mm 1 mps 638 mmHg 62%
    18:00 -1°C° 0 mm 1 mps 639 mmHg 66%
    19:00 -3°C° 0 mm 2 mps 639 mmHg 71%
    20:00 -3°C° 0.2 mm 2 mps 638 mmHg 77%
    21:00 -3°C° 0.2 mm 2 mps 638 mmHg 84%
    22:00 -4°C° 0.2 mm 2 mps 638 mmHg 91%
    23:00 -4°C° 0.5 mm 2 mps 638 mmHg 92%

    Tomorrow, 12 December, Thursday

    Time Temperature Precipitation Wind Pressure Humidity
    00:00 -2°C° 0.5 mm 1 mps 637 mmHg 93%
    01:00 -2°C° 0.5 mm 1 mps 637 mmHg 95%
    02:00 -2°C° 0.3 mm 1 mps 637 mmHg 94%
    03:00 -2°C° 0.3 mm 1 mps 636 mmHg 93%
    04:00 -2°C° 0.3 mm 1 mps 636 mmHg 91%
    05:00 -3°C° 0.1 mm 1 mps 636 mmHg 92%
    06:00 -3°C° 0.1 mm 1 mps 636 mmHg 92%
    07:00 -3°C° 0.1 mm 1 mps 636 mmHg 93%
    08:00 -3°C° 0.5 mm 1 mps 636 mmHg 93%
    09:00 -3°C° 0.5 mm 1 mps 636 mmHg 94%
    10:00 -2°C° 0.5 mm 1 mps 636 mmHg 95%
    11:00 -4°C° 0.2 mm 2 mps 636 mmHg 92%
    12:00 -4°C° 0.2 mm 2 mps 636 mmHg 90%
    13:00 -3°C° 0.2 mm 2 mps 636 mmHg 88%
    14:00 -4°C° 0.1 mm 2 mps 636 mmHg 89%
    15:00 -3°C° 0.1 mm 1 mps 635 mmHg 91%
    16:00 -4°C° 0.1 mm 1 mps 634 mmHg 92%
    17:00 -4°C° 0 mm 1 mps 634 mmHg 91%
    18:00 -6°C° 0 mm 1 mps 633 mmHg 90%
    19:00 -8°C° 0 mm 2 mps 633 mmHg 88%
    20:00 -8°C° 0 mm 2 mps 632 mmHg 85%
    21:00 -9°C° 0 mm 3 mps 631 mmHg 82%
    22:00 -9°C° 0 mm 3 mps 630 mmHg 79%
    23:00 -9°C° 0 mm 3 mps 630 mmHg 75%

    Day after tomorrow, 13 December, Friday

    Time Temperature Precipitation Wind Pressure Humidity
    00:00 -9°C° 0 mm 3 mps 629 mmHg 72%
    01:00 -9°C° 0 mm 3 mps 628 mmHg 69%
    02:00 -8°C° 0 mm 3 mps 627 mmHg 70%
    03:00 -8°C° 0 mm 3 mps 627 mmHg 72%
    04:00 -7°C° 0 mm 3 mps 626 mmHg 73%
    05:00 -7°C° 0.3 mm 3 mps 625 mmHg 76%
    06:00 -7°C° 0.3 mm 3 mps 625 mmHg 79%
    07:00 -7°C° 0.3 mm 3 mps 625 mmHg 82%
    08:00 -7°C° 0.6 mm 3 mps 625 mmHg 85%
    09:00 -7°C° 0.6 mm 3 mps 624 mmHg 87%
    10:00 -7°C° 0.6 mm 3 mps 624 mmHg 89%
    11:00 -6°C° 0.6 mm 3 mps 625 mmHg 88%
    12:00 -5°C° 0.6 mm 4 mps 625 mmHg 87%
    13:00 -4°C° 0.6 mm 4 mps 626 mmHg 86%
    14:00 -5°C° 0.3 mm 4 mps 626 mmHg 88%
    15:00 -5°C° 0.3 mm 3 mps 626 mmHg 89%
    16:00 -6°C° 0.3 mm 3 mps 626 mmHg 91%
    17:00 -6°C° 0.4 mm 3 mps 627 mmHg 92%
    18:00 -6°C° 0.4 mm 3 mps 627 mmHg 93%
    19:00 -6°C° 0.4 mm 3 mps 628 mmHg 95%
    20:00 -6°C° 0.7 mm 3 mps 629 mmHg 96%
    21:00 -6°C° 0.7 mm 3 mps 630 mmHg 96%
    22:00 -6°C° 0.7 mm 3 mps 630 mmHg 97%
    23:00 -5°C° 0.4 mm 2 mps 631 mmHg 96%

    14 December, Saturday

    Time Temperature Precipitation Wind Pressure Humidity
    00:00 -6°C° 0.4 mm 2 mps 632 mmHg 96%
    01:00 -6°C° 0.4 mm 2 mps 632 mmHg 95%
    02:00 -7°C° 0 mm 2 mps 632 mmHg 92%
    03:00 -7°C° 0 mm 2 mps 633 mmHg 90%
    04:00 -8°C° 0 mm 2 mps 633 mmHg 87%
    05:00 -8°C° 0.2 mm 3 mps 633 mmHg 87%
    06:00 -8°C° 0.2 mm 3 mps 633 mmHg 88%
    07:00 -7°C° 0.2 mm 3 mps 634 mmHg 88%
    08:00 -7°C° 0.8 mm 4 mps 634 mmHg 90%
    09:00 -5°C° 0.8 mm 4 mps 635 mmHg 92%
    10:00 -5°C° 0.8 mm 4 mps 635 mmHg 94%
    11:00 -4°C° 0.5 mm 4 mps 635 mmHg 94%
    12:00 -2°C° 0.5 mm 3 mps 636 mmHg 94%
    13:00 -1°C° 0.5 mm 3 mps 636 mmHg 94%
    14:00 -1°C° 1.1 mm 3 mps 636 mmHg 94%
    15:00 -1°C° 1.1 mm 3 mps 637 mmHg 95%
    16:00 0°C° 1.1 mm 3 mps 637 mmHg 95%
    17:00 0°C° 0.4 mm 3 mps 637 mmHg 94%
    18:00 0°C° 0.4 mm 3 mps 638 mmHg 92%
    19:00 0°C° 0.4 mm 3 mps 638 mmHg 91%
    20:00 -1°C° 0.1 mm 3 mps 638 mmHg 89%
    21:00 -1°C° 0.1 mm 3 mps 638 mmHg 86%
    22:00 -1°C° 0.1 mm 3 mps 638 mmHg 83%
    23:00 -1°C° 0 mm 3 mps 638 mmHg 82%

    15 December, Sunday

    Time Temperature Precipitation Wind Pressure Humidity
    00:00 -2°C° 0 mm 3 mps 638 mmHg 81%
    01:00 -2°C° 0 mm 3 mps 638 mmHg 80%
    02:00 -2°C° 0 mm 3 mps 638 mmHg 80%
    03:00 -4°C° 0 mm 3 mps 638 mmHg 80%
    04:00 -4°C° 0 mm 3 mps 638 mmHg 80%
    05:00 -4°C° 0 mm 3 mps 638 mmHg 80%
    06:00 -4°C° 0 mm 3 mps 638 mmHg 80%
    07:00 -4°C° 0 mm 3 mps 639 mmHg 80%
    08:00 -2°C° 0 mm 3 mps 639 mmHg 80%
    09:00 -1°C° 0 mm 3 mps 640 mmHg 80%
    10:00 -1°C° 0 mm 3 mps 640 mmHg 81%
    11:00 0°C° 0 mm 3 mps 641 mmHg 83%
    12:00 +2°C° 0 mm 2 mps 641 mmHg 86%
    13:00 +3°C° 0 mm 2 mps 642 mmHg 89%
    14:00 +2°C° 0 mm 2 mps 642 mmHg 89%
    15:00 +3°C° 0 mm 1 mps 642 mmHg 88%
    16:00 +2°C° 0 mm 1 mps 642 mmHg 88%
    17:00 +2°C° 0 mm 1 mps 643 mmHg 88%
    18:00 +1°C° 0 mm 1 mps 643 mmHg 88%
    19:00 +1°C° 0 mm 1 mps 643 mmHg 88%
    20:00 0°C° 0 mm 1 mps 643 mmHg 86%
    21:00 -2°C° 0 mm 2 mps 643 mmHg 84%
    22:00 -3°C° 0 mm 2 mps 644 mmHg 82%
    23:00 -3°C° 0 mm 2 mps 644 mmHg 81%

    16 December, Monday

    Time Temperature Precipitation Wind Pressure Humidity
    00:00 -3°C° 0 mm 2 mps 644 mmHg 80%
    01:00 -3°C° 0 mm 2 mps 644 mmHg 79%
    02:00 -4°C° 0 mm 2 mps 643 mmHg 79%
    03:00 -5°C° 0 mm 3 mps 643 mmHg 79%
    04:00 -5°C° 0 mm 3 mps 643 mmHg 79%
    05:00 -5°C° 0 mm 3 mps 643 mmHg 79%
    06:00 -4°C° 0 mm 3 mps 643 mmHg 80%
    07:00 -4°C° 0 mm 3 mps 643 mmHg 80%
    08:00 -2°C° 0 mm 3 mps 643 mmHg 80%
    09:00 -2°C° 0 mm 3 mps 643 mmHg 80%
    10:00 -1°C° 0 mm 3 mps 643 mmHg 80%
    11:00 +1°C° 0 mm 2 mps 643 mmHg 82%
    12:00 +2°C° 0 mm 2 mps 643 mmHg 84%
    13:00 +3°C° 0 mm 2 mps 643 mmHg 87%
    14:00 +2°C° 0 mm 2 mps 643 mmHg 87%
    15:00 +2°C° 0 mm 2 mps 643 mmHg 86%
    16:00 +1°C° 0 mm 2 mps 643 mmHg 86%
    17:00 +1°C° 0 mm 2 mps 642 mmHg 85%
    18:00 -1°C° 0 mm 2 mps 642 mmHg 85%
    19:00 -1°C° 0 mm 2 mps 642 mmHg 84%
    20:00 -1°C° 0 mm 3 mps 642 mmHg 84%
    21:00 -1°C° 0 mm 3 mps 642 mmHg 83%
    22:00 -1°C° 0 mm 3 mps 642 mmHg 83%
    23:00 -1°C° 0 mm 3 mps 642 mmHg 83%
    Show more